Regional Weather Roundup
Issued by NWS

Home | Current Version | Previous Version | Text Only | Print | Product List | Glossary Off
Versions: 1 2 3 4 5 6 7 8 9 10 11 12 13 14 15 16 17 18 19 20 21 22 23 24 25 26 27 28 29 30 31 32 33 34 35 36 37 38 39 40 41 42 43 44 45 46 47 48 49 50

040
ASUS43 KLMK 202310
RWRKY
NATIONAL WEATHER SERVICE LOUISVILLE KY
600 PM EST MON NOV 20 2017

NOTE "FAIR" INDICATES FEW OR NO CLOUDS BELOW 12,000 FEET
WITH NO SIGNIFICANT WEATHER AND/OR OBSTRUCTIONS TO VISIBILITY.

KYZ001>023-026-027-061>063-070>075-210000-
WESTERN AND SOUTH CENTRAL KENTUCKY

CITY           SKY/WX    TMP DP  RH WIND       PRES   REMARKS
PADUCAH        CLEAR     50  22  33 S3        30.04F
HENDERSON      CLEAR     45  27  49 S7        30.05F
OWENSBORO      CLEAR     46  27  47 S7        30.07S
HOPKINSVILLE   CLEAR     50  22  34 SE5       30.06F
BOWLING GREEN  CLOUDY    47  23  38 S5        30.09F
GLASGOW        CLEAR     46  21  37 SE3       30.09F
$$

KYZ024-025-028>034-038-045-046-053-210000-
NORTH CENTRAL KENTUCKY

CITY           SKY/WX    TMP DP  RH WIND       PRES   REMARKS
LOUISVILLE/SDF MOCLDY    47  24  40 SE6       30.08S
LOUISVILLE/LOU CLOUDY    47  24  40 SE5       30.09S
FORT KNOX      CLOUDY    42  24  48 S8        30.06S
$$

KYZ035>037-039>044-047>052-055>060-089>105-210000-
NORTHEAST KENTUCKY

CITY           SKY/WX    TMP DP  RH WIND       PRES   REMARKS
LEXINGTON      CLOUDY    42  26  53 S7        30.09F
COVINGTON      CLOUDY    39  27  62 S7        30.06F WCI  34
FRANKFORT      CLOUDY    44  25  47 SE5       30.08F
$$

KYZ054-064>069-076>088-106>120-210000-
SOUTHEAST KENTUCKY

CITY           SKY/WX    TMP DP  RH WIND       PRES   REMARKS
JACKSON        CLOUDY    45  21  38 CALM      30.11F
LONDON         CLOUDY    44  23  43 CALM      30.12S
SOMERSET       CLOUDY    43  23  45 CALM      30.13F
MIDDLESBORO    CLOUDY    42  30  64 CALM      30.15S
MONTICELLO     CLOUDY    39  28  64 CALM      30.13F
$$





USA.gov is the U.S. government's official web portal to all federal, state and local government web resources and services.